contact:dominique.lefevre@mio.osupytheas.fr, maurice.libes@osupytheas.fr, didier.mallarino@osupytheas.fr
Project:EMSO http://www.emso-fr.org/EMSO-France
Depth: 2436.0 m
Title:EMSO Ligure Ouest : Data MII capteur AQUADOPP
Date,Latitude,Longitude,X_East,Y_North,Z_Up,Amplitude_X,Amplitude_Y,Amplitude_Z,Batterie,SoundSpeed,Heading,Pitch,Roll,Pressure,TIS,Speed,Direction
, degrees North, degrees East, m.s-1, m.s-1,m.s-1, 1, 1, 1, Volt, m.s-1, degree, degree, degree, dbar, degree_C, m.s-1, degree
2020-07-17T00:01:03,42.805,6.029,-0.01,0.031,-0.045,105.0,121.0,101.0,13.4,1505.3,327.8,-0.7,1.8,2470.299,13.33,0.032,342.1
2020-07-17T00:04:03,42.805,6.029,-0.01,0.043,-0.024,104.0,123.0,102.0,13.4,1505.3,326.6,-0.7,1.9,2470.275,13.33,0.044,346.9
2020-07-17T00:07:03,42.805,6.029,0.008,0.026,0.001,105.0,122.0,102.0,13.4,1505.3,324.7,-0.7,1.8,2470.278,13.33,0.027,17.1
2020-07-17T00:10:03,42.805,6.029,0.006,0.029,-0.024,104.0,121.0,102.0,13.4,1505.3,324.7,-0.7,1.8,2470.299,13.33,0.029,11.7
2020-07-17T00:13:03,42.805,6.029,-0.013,0.038,-0.03,104.0,119.0,101.0,13.4,1505.3,322.9,-0.7,1.8,2470.306,13.33,0.04,341.1
2020-07-17T00:16:03,42.805,6.029,-0.021,0.03,-0.043,105.0,120.0,101.0,13.4,1505.3,325.8,-0.8,1.8,2470.27,13.33,0.036,325.0
2020-07-17T00:19:03,42.805,6.029,0.003,0.026,0.015,104.0,118.0,103.0,13.4,1505.3,324.6,-0.6,1.8,2470.275,13.33,0.026,6.6
2020-07-17T00:22:03,42.805,6.029,-0.001,0.039,-0.024,103.0,120.0,103.0,13.3,1505.3,326.8,-0.8,1.9,2470.297,13.33,0.039,358.5
2020-07-17T00:25:03,42.805,6.029,-0.022,0.036,-0.014,104.0,122.0,101.0,13.4,1505.3,324.6,-0.7,1.8,2470.303,13.33,0.042,328.6
2020-07-17T00:28:03,42.805,6.029,0.001,0.06,0.009,103.0,121.0,102.0,13.4,1505.3,326.6,-0.7,1.8,2470.295,13.33,0.06,1.0
2020-07-17T00:31:03,42.805,6.029,-0.013,0.041,-0.03,104.0,121.0,102.0,13.3,1505.3,325.0,-0.8,1.9,2470.326,13.33,0.043,342.4
2020-07-17T00:34:03,42.805,6.029,-0.012,0.034,-0.017,103.0,121.0,102.0,13.4,1505.3,324.8,-0.7,1.8,2470.281,13.33,0.036,340.6
2020-07-17T00:37:03,42.805,6.029,0.007,0.024,-0.044,104.0,121.0,102.0,13.4,1505.3,325.2,-0.7,1.9,2470.295,13.33,0.025,16.3
2020-07-17T00:40:03,42.805,6.029,-0.016,0.032,0.005,103.0,123.0,101.0,13.4,1505.3,325.6,-0.7,1.8,2470.311,13.33,0.035,333.4
2020-07-17T00:43:03,42.805,6.029,-0.05,0.041,-0.038,104.0,123.0,101.0,13.3,1505.3,327.9,-0.7,1.8,2470.286,13.33,0.064,309.3
2020-07-17T00:46:03,42.805,6.029,0.015,0.027,-0.011,104.0,122.0,102.0,13.4,1505.3,326.5,-0.7,1.8,2470.31,13.33,0.03,29.1
2020-07-17T00:49:03,42.805,6.029,0.001,0.045,-0.002,104.0,117.0,102.0,13.4,1505.3,328.2,-0.7,1.9,2470.3,13.33,0.045,1.3
2020-07-17T00:52:03,42.805,6.029,0.004,0.043,-0.015,104.0,121.0,102.0,13.4,1505.3,326.0,-0.7,1.8,2470.291,13.33,0.043,5.3
2020-07-17T00:55:03,42.805,6.029,-0.001,0.021,0.022,104.0,124.0,102.0,13.4,1505.3,328.2,-0.7,1.8,2470.299,13.33,0.021,357.3
2020-07-17T00:58:03,42.805,6.029,-0.002,0.04,-0.04,105.0,122.0,102.0,13.3,1505.3,325.7,-0.7,1.8,2470.311,13.33,0.04,357.1
2020-07-17T01:04:03,42.805,6.029,0.016,0.026,-0.006,106.0,122.0,102.0,13.4,1505.3,324.0,-0.7,1.8,2470.315,13.31,0.03,31.6
2020-07-17T01:07:03,42.805,6.029,0.002,0.041,-0.004,103.0,122.0,103.0,13.4,1505.3,327.0,-0.7,1.8,2470.352,13.32,0.041,2.8
2020-07-17T01:10:03,42.805,6.029,0.014,0.033,0.006,105.0,122.0,102.0,13.4,1505.3,324.6,-0.7,1.8,2470.335,13.32,0.035,23.0
2020-07-17T01:13:03,42.805,6.029,-0.016,0.032,-0.039,105.0,122.0,102.0,13.4,1505.3,324.8,-0.7,1.9,2470.296,13.33,0.035,333.4
2020-07-17T01:16:03,42.805,6.029,-0.024,0.045,-0.025,104.0,124.0,102.0,13.4,1505.3,324.7,-0.7,1.8,2470.334,13.33,0.051,331.9
2020-07-17T01:19:03,42.805,6.029,0.004,0.027,-0.028,105.0,121.0,103.0,13.4,1505.3,326.6,-0.7,1.8,2470.304,13.33,0.027,8.4
2020-07-17T01:22:03,42.805,6.029,-0.017,0.049,0.007,104.0,119.0,102.0,13.3,1505.3,325.4,-0.7,1.9,2470.389,13.33,0.051,340.9
2020-07-17T01:25:03,42.805,6.029,-0.017,0.026,-0.045,105.0,124.0,101.0,13.4,1505.3,325.0,-0.7,1.9,2470.31,13.33,0.031,326.8
2020-07-17T01:28:03,42.805,6.029,0.022,0.04,-0.016,103.0,121.0,102.0,13.4,1505.3,325.9,-0.7,1.8,2470.285,13.33,0.045,28.8
2020-07-17T01:31:03,42.805,6.029,-0.007,0.028,-0.023,106.0,121.0,101.0,13.4,1505.3,326.4,-0.7,1.8,2470.314,13.33,0.028,346.0
2020-07-17T01:34:03,42.805,6.029,-0.01,0.025,-0.005,104.0,120.0,101.0,13.3,1505.3,327.0,-0.7,1.9,2470.309,13.33,0.026,338.2
2020-07-17T01:37:03,42.805,6.029,-0.005,0.026,-0.001,104.0,123.0,102.0,13.4,1505.3,327.8,-0.7,1.8,2470.315,13.33,0.026,349.1
2020-07-17T01:40:03,42.805,6.029,0.006,0.038,-0.053,104.0,116.0,101.0,13.3,1505.3,325.2,-0.7,1.8,2470.305,13.33,0.038,9.0
2020-07-17T01:43:03,42.805,6.029,-0.024,0.022,-0.025,104.0,123.0,102.0,13.4,1505.3,324.3,-0.7,1.8,2470.334,13.33,0.032,312.5
2020-07-17T01:46:03,42.805,6.029,0.007,0.036,-0.013,103.0,119.0,102.0,13.4,1505.3,325.4,-0.8,1.8,2470.293,13.33,0.036,11.0
2020-07-17T01:49:03,42.805,6.029,-0.011,0.036,0.016,105.0,124.0,101.0,13.4,1505.3,327.7,-0.7,1.8,2470.358,13.33,0.037,343.0
2020-07-17T01:52:03,42.805,6.029,0.014,0.018,-0.019,107.0,122.0,104.0,13.4,1505.3,324.2,-0.7,1.9,2470.318,13.33,0.022,37.9
2020-07-17T01:55:03,42.805,6.029,-0.03,0.02,-0.044,104.0,122.0,102.0,13.4,1505.3,326.4,-0.7,1.8,2470.333,13.33,0.036,303.7
2020-07-17T01:58:03,42.805,6.029,-0.004,0.012,-0.025,105.0,123.0,101.0,13.4,1505.3,325.3,-0.7,1.8,2470.301,13.33,0.012,341.6
2020-07-17T02:04:03,42.805,6.029,0.02,0.04,-0.021,105.0,123.0,102.0,13.4,1505.3,328.1,-0.7,1.9,2470.366,13.31,0.044,26.6
2020-07-17T02:07:03,42.805,6.029,-0.002,0.019,-0.018,105.0,121.0,101.0,13.3,1505.3,325.5,-0.7,1.8,2470.37,13.31,0.019,354.0
2020-07-17T02:10:03,42.805,6.029,0.004,0.034,-0.02,105.0,120.0,102.0,13.4,1505.3,328.0,-0.7,1.8,2470.367,13.32,0.034,6.7
2020-07-17T02:13:03,42.805,6.029,0.002,0.034,0.002,105.0,121.0,101.0,13.4,1505.3,327.0,-0.7,1.8,2470.391,13.32,0.034,3.4
2020-07-17T02:16:03,42.805,6.029,0.012,0.022,-0.004,105.0,122.0,102.0,13.4,1505.3,328.1,-0.7,1.8,2470.351,13.33,0.025,28.6
2020-07-17T02:19:03,42.805,6.029,-0.001,0.023,-0.024,105.0,122.0,102.0,13.4,1505.3,323.5,-0.7,1.9,2470.364,13.33,0.023,357.5
2020-07-17T02:22:03,42.805,6.029,0.004,0.031,0.004,104.0,122.0,103.0,13.4,1505.3,324.6,-0.7,1.8,2470.349,13.33,0.031,7.3
2020-07-17T02:25:03,42.805,6.029,0.036,0.032,0.034,104.0,120.0,102.0,13.3,1505.3,328.1,-0.7,1.9,2470.322,13.33,0.048,48.4
2020-07-17T02:31:03,42.805,6.029,-0.012,0.034,-0.016,103.0,122.0,101.0,13.4,1505.3,325.0,-0.7,1.8,2470.36,13.31,0.036,340.6
2020-07-17T02:34:03,42.805,6.029,-0.006,0.024,-0.036,103.0,123.0,101.0,13.4,1505.3,324.1,-0.7,1.8,2470.321,13.32,0.024,346.0
2020-07-17T02:37:03,42.805,6.029,0.02,0.019,0.001,105.0,122.0,101.0,13.4,1505.3,326.6,-0.7,1.8,2470.393,13.32,0.027,46.5
2020-07-17T02:40:03,42.805,6.029,0.013,0.012,-0.033,106.0,119.0,101.0,13.4,1505.3,325.5,-0.7,1.9,2470.378,13.32,0.017,47.3
2020-07-17T02:43:03,42.805,6.029,-0.019,0.043,-0.017,105.0,118.0,102.0,13.4,1505.3,327.4,-0.7,1.8,2470.369,13.33,0.047,336.2
2020-07-17T02:46:03,42.805,6.029,0.01,0.03,0.01,104.0,121.0,102.0,13.3,1505.3,323.8,-0.7,1.9,2470.361,13.33,0.031,18.4
2020-07-17T02:49:03,42.805,6.029,-0.014,0.026,-0.024,105.0,121.0,103.0,13.4,1505.3,323.1,-0.7,1.9,2470.357,13.33,0.029,331.7
2020-07-17T02:52:03,42.805,6.029,-0.007,0.02,-0.031,104.0,122.0,102.0,13.4,1505.3,327.8,-0.7,1.8,2470.339,13.33,0.021,340.7
2020-07-17T02:55:03,42.805,6.029,-0.003,0.051,0.0,104.0,120.0,103.0,13.4,1505.3,327.2,-0.7,1.8,2470.344,13.33,0.051,356.6
2020-07-17T02:58:03,42.805,6.029,0.031,0.024,-0.016,105.0,124.0,101.0,13.4,1505.3,323.8,-0.7,1.8,2470.385,13.33,0.039,52.3
2020-07-17T03:04:03,42.805,6.029,0.014,0.023,0.003,105.0,122.0,102.0,13.3,1505.3,323.8,-0.8,1.8,2470.382,13.31,0.026,31.3
2020-07-17T03:07:03,42.805,6.029,0.012,0.042,-0.011,103.0,120.0,102.0,13.4,1505.3,324.3,-0.7,1.8,2470.356,13.31,0.043,15.9
2020-07-17T03:10:03,42.805,6.029,0.0,0.014,-0.028,105.0,121.0,102.0,13.3,1505.3,326.8,-0.7,1.9,2470.381,13.32,0.014,0.0
2020-07-17T03:13:03,42.805,6.029,0.001,0.052,0.011,104.0,122.0,102.0,13.3,1505.3,325.3,-0.7,1.8,2470.409,13.32,0.052,1.1
2020-07-17T03:16:03,42.805,6.029,0.014,0.026,-0.01,104.0,123.0,103.0,13.3,1505.3,322.8,-0.7,1.8,2470.357,13.32,0.029,28.3
2020-07-17T03:19:03,42.805,6.029,-0.006,0.028,-0.044,105.0,123.0,102.0,13.4,1505.3,326.0,-0.7,1.8,2470.379,13.33,0.028,347.9
2020-07-17T03:22:03,42.805,6.029,0.013,0.047,-0.015,105.0,121.0,102.0,13.3,1505.3,326.3,-0.7,1.8,2470.355,13.33,0.048,15.5
2020-07-17T03:25:03,42.805,6.029,0.007,0.018,-0.014,105.0,120.0,102.0,13.3,1505.3,323.4,-0.7,1.8,2470.38,13.33,0.019,21.2
2020-07-17T03:28:03,42.805,6.029,0.006,0.048,-0.021,106.0,119.0,102.0,13.4,1505.3,325.0,-0.7,1.8,2470.399,13.33,0.048,7.1
2020-07-17T03:31:03,42.805,6.029,-0.031,0.044,-0.078,104.0,124.0,103.0,13.3,1505.3,324.2,-0.7,1.8,2470.401,13.33,0.053,324.8
2020-07-17T03:34:03,42.805,6.029,0.0,0.023,-0.044,105.0,122.0,102.0,13.4,1505.3,325.6,-0.7,1.9,2470.379,13.33,0.023,0.0
2020-07-17T03:37:03,42.805,6.029,0.015,0.015,-0.024,105.0,118.0,102.0,13.4,1505.3,322.8,-0.7,1.8,2470.384,13.33,0.021,45.0
2020-07-17T03:40:03,42.805,6.029,0.018,0.028,-0.021,106.0,119.0,102.0,13.3,1505.3,325.9,-0.7,1.8,2470.35,13.33,0.033,32.7
2020-07-17T03:43:03,42.805,6.029,-0.01,0.031,-0.025,106.0,123.0,102.0,13.3,1505.3,328.4,-0.7,1.9,2470.368,13.33,0.032,342.1
2020-07-17T03:46:03,42.805,6.029,-0.001,0.035,0.0,105.0,123.0,103.0,13.3,1505.3,326.5,-0.7,1.8,2470.39,13.33,0.035,358.4
2020-07-17T03:49:03,42.805,6.029,0.02,0.008,-0.03,105.0,121.0,102.0,13.4,1505.3,327.6,-0.7,1.8,2470.391,13.33,0.021,68.2
2020-07-17T03:52:03,42.805,6.029,0.031,0.049,0.01,105.0,117.0,102.0,13.3,1505.3,324.5,-0.7,1.8,2470.362,13.33,0.057,32.3
2020-07-17T03:55:03,42.805,6.029,-0.019,0.023,-0.008,105.0,123.0,102.0,13.4,1505.3,326.1,-0.7,1.8,2470.331,13.33,0.029,320.4
2020-07-17T03:58:03,42.805,6.029,0.01,0.048,0.007,104.0,124.0,102.0,13.4,1505.3,323.8,-0.7,1.8,2470.392,13.33,0.049,11.8
2020-07-17T04:04:03,42.805,6.029,0.001,0.027,-0.014,105.0,120.0,102.0,13.3,1505.3,326.6,-0.7,1.8,2470.406,13.31,0.027,2.1
2020-07-17T04:07:03,42.805,6.029,0.002,0.035,-0.018,105.0,120.0,102.0,13.3,1505.3,324.8,-0.7,1.8,2470.376,13.31,0.035,3.3
2020-07-17T04:10:03,42.805,6.029,-0.006,0.012,-0.023,103.0,122.0,103.0,13.4,1505.3,325.6,-0.7,1.8,2470.395,13.32,0.013,333.4
2020-07-17T04:13:03,42.805,6.029,-0.002,0.032,-0.025,105.0,120.0,103.0,13.4,1505.3,328.1,-0.7,1.8,2470.412,13.32,0.032,356.4
2020-07-17T04:16:03,42.805,6.029,0.009,0.034,-0.008,104.0,123.0,102.0,13.4,1505.3,324.0,-0.7,1.8,2470.396,13.32,0.035,14.8
2020-07-17T04:19:03,42.805,6.029,-0.012,0.042,-0.021,104.0,122.0,103.0,13.4,1505.3,326.8,-0.7,1.8,2470.366,13.32,0.043,344.1
2020-07-17T04:22:03,42.805,6.029,0.025,0.03,0.032,103.0,119.0,102.0,13.4,1505.3,325.6,-0.7,1.8,2470.358,13.32,0.039,39.8
2020-07-17T04:25:03,42.805,6.029,0.012,0.017,0.01,105.0,119.0,102.0,13.3,1505.3,325.5,-0.7,1.9,2470.382,13.33,0.02,35.2
2020-07-17T04:28:03,42.805,6.029,0.04,0.037,-0.012,104.0,123.0,101.0,13.3,1505.3,324.5,-0.7,1.8,2470.393,13.33,0.054,47.2
2020-07-17T04:31:03,42.805,6.029,-0.01,0.028,-0.023,104.0,123.0,101.0,13.4,1505.3,325.7,-0.7,1.8,2470.376,13.33,0.029,340.4
2020-07-17T04:34:03,42.805,6.029,-0.009,0.026,-0.04,105.0,121.0,103.0,13.4,1505.3,325.3,-0.7,1.8,2470.348,13.33,0.027,340.9
2020-07-17T04:40:03,42.805,6.029,0.041,0.012,-0.026,105.0,124.0,102.0,13.4,1505.3,326.3,-0.7,1.8,2470.433,13.31,0.042,73.7
2020-07-17T04:43:03,42.805,6.029,0.006,0.058,0.029,104.0,124.0,102.0,13.4,1505.3,322.9,-0.7,1.8,2470.4,13.31,0.058,5.9
2020-07-17T04:46:03,42.805,6.029,0.024,0.02,-0.014,104.0,122.0,102.0,13.4,1505.3,326.3,-0.7,1.9,2470.378,13.32,0.031,50.2
2020-07-17T04:49:03,42.805,6.029,0.014,0.034,0.005,104.0,121.0,101.0,13.4,1505.3,324.5,-0.7,1.9,2470.386,13.32,0.036,22.4
2020-07-17T04:52:03,42.805,6.029,0.022,0.031,0.0,105.0,120.0,102.0,13.4,1505.3,325.9,-0.7,1.8,2470.376,13.32,0.038,35.4
2020-07-17T04:55:03,42.805,6.029,0.02,0.009,0.018,105.0,120.0,102.0,13.4,1505.3,325.5,-0.7,1.8,2470.375,13.32,0.021,65.8
2020-07-17T04:58:03,42.805,6.029,0.012,0.038,-0.02,105.0,121.0,102.0,13.3,1505.3,327.5,-0.7,1.8,2470.373,13.33,0.039,17.5
2020-07-17T05:04:03,42.805,6.029,-0.006,0.011,-0.026,104.0,119.0,102.0,13.4,1505.3,322.6,-0.7,1.8,2470.373,13.31,0.012,331.4
2020-07-17T05:07:03,42.805,6.029,0.01,0.053,0.012,104.0,119.0,101.0,13.4,1505.3,324.2,-0.7,1.8,2470.37,13.31,0.053,10.7
2020-07-17T05:10:03,42.805,6.029,-0.002,0.037,-0.012,105.0,117.0,102.0,13.3,1505.3,323.0,-0.7,1.8,2470.408,13.32,0.037,356.9
2020-07-17T05:13:03,42.805,6.029,-0.006,0.027,-0.046,103.0,121.0,101.0,13.4,1505.3,325.8,-0.7,1.8,2470.409,13.32,0.027,347.5
2020-07-17T05:16:03,42.805,6.029,-0.001,0.025,-0.044,106.0,124.0,101.0,13.4,1505.3,327.6,-0.7,1.8,2470.384,13.33,0.025,357.7
2020-07-17T05:19:03,42.805,6.029,-0.009,0.007,-0.03,105.0,119.0,101.0,13.4,1505.3,323.3,-0.7,1.8,2470.363,13.33,0.011,307.9
2020-07-17T05:22:03,42.805,6.029,0.0,0.045,-0.007,103.0,122.0,101.0,13.4,1505.3,325.0,-0.7,1.8,2470.397,13.33,0.045,0.0
2020-07-17T05:25:03,42.805,6.029,0.01,0.047,0.006,104.0,118.0,102.0,13.4,1505.3,324.2,-0.7,1.8,2470.323,13.33,0.048,12.0
2020-07-17T05:28:03,42.805,6.029,-0.015,0.033,-0.023,105.0,121.0,101.0,13.4,1505.3,324.4,-0.7,1.8,2470.398,13.33,0.036,335.6
2020-07-17T05:31:03,42.805,6.029,0.02,0.027,-0.025,103.0,120.0,101.0,13.3,1505.3,328.5,-0.7,1.8,2470.365,13.33,0.033,36.5
2020-07-17T05:34:03,42.805,6.029,-0.001,0.04,-0.018,105.0,117.0,102.0,13.4,1505.3,324.2,-0.7,1.8,2470.373,13.33,0.04,358.6
2020-07-17T05:37:03,42.805,6.029,-0.003,0.019,0.028,106.0,120.0,101.0,13.4,1505.3,325.1,-0.7,1.8,2470.346,13.33,0.019,351.0
2020-07-17T05:40:03,42.805,6.029,-0.011,0.048,-0.023,104.0,120.0,102.0,13.4,1505.3,327.7,-0.7,1.8,2470.376,13.33,0.049,347.1
2020-07-17T05:43:03,42.805,6.029,-0.01,0.017,-0.019,105.0,120.0,101.0,13.4,1505.3,326.7,-0.7,1.8,2470.348,13.33,0.019,329.5
2020-07-17T05:46:03,42.805,6.029,-0.006,0.029,-0.022,104.0,122.0,101.0,13.4,1505.3,323.5,-0.7,1.8,2470.352,13.33,0.029,348.3
2020-07-17T05:49:03,42.805,6.029,-0.017,0.015,-0.008,104.0,119.0,102.0,13.3,1505.3,323.1,-0.7,1.8,2470.332,13.33,0.022,311.4
2020-07-17T05:52:03,42.805,6.029,-0.012,0.024,-0.033,104.0,121.0,102.0,13.4,1505.3,324.8,-0.7,1.9,2470.335,13.33,0.026,333.4
2020-07-17T05:55:03,42.805,6.029,-0.017,0.035,-0.008,104.0,119.0,102.0,13.4,1505.3,322.8,-0.7,1.8,2470.371,13.33,0.038,334.1
2020-07-17T05:58:03,42.805,6.029,-0.008,0.024,-0.014,104.0,122.0,102.0,13.3,1505.3,326.8,-0.7,1.9,2470.322,13.33,0.025,341.6
2020-07-17T06:04:03,42.805,6.029,0.0,0.047,0.006,104.0,121.0,103.0,13.4,1505.3,323.5,-0.8,1.8,2470.394,13.31,0.047,0.0
2020-07-17T06:07:03,42.805,6.029,0.025,0.028,-0.008,105.0,117.0,102.0,13.4,1505.3,326.5,-0.7,1.8,2470.324,13.32,0.037,41.8
2020-07-17T06:10:03,42.805,6.029,0.0,0.045,0.034,105.0,119.0,102.0,13.4,1505.3,327.7,-0.7,1.8,2470.344,13.32,0.045,0.0
2020-07-17T06:13:03,42.805,6.029,0.029,0.033,-0.009,104.0,119.0,102.0,13.4,1505.3,325.7,-0.7,1.8,2470.39,13.32,0.043,41.3
2020-07-17T06:16:03,42.805,6.029,-0.015,0.028,-0.014,105.0,119.0,102.0,13.4,1505.3,325.0,-0.7,1.9,2470.327,13.33,0.031,331.8
2020-07-17T06:19:03,42.805,6.029,-0.014,0.031,-0.011,104.0,120.0,103.0,13.4,1505.3,324.2,-0.7,1.8,2470.368,13.33,0.034,335.7
2020-07-17T06:22:03,42.805,6.029,-0.004,0.039,0.0,104.0,122.0,103.0,13.3,1505.3,325.2,-0.7,1.8,2470.335,13.33,0.039,354.1
2020-07-17T06:25:03,42.805,6.029,0.005,0.045,-0.003,104.0,120.0,103.0,13.4,1505.3,327.0,-0.7,1.8,2470.326,13.33,0.045,6.3
2020-07-17T06:28:03,42.805,6.029,0.026,0.041,-0.007,106.0,118.0,102.0,13.4,1505.3,327.9,-0.7,1.8,2470.315,13.33,0.048,32.4
2020-07-17T06:31:03,42.805,6.029,-0.014,0.043,-0.022,106.0,121.0,102.0,13.4,1505.3,325.6,-0.7,1.8,2470.35,13.33,0.045,342.0
2020-07-17T06:34:03,42.805,6.029,-0.01,0.035,-0.015,105.0,122.0,102.0,13.4,1505.3,326.9,-0.7,1.8,2470.349,13.33,0.036,344.1
2020-07-17T06:37:03,42.805,6.029,-0.006,0.035,-0.028,105.0,120.0,101.0,13.4,1505.3,324.2,-0.7,1.8,2470.349,13.33,0.035,350.3
2020-07-17T06:40:03,42.805,6.029,0.008,0.043,0.019,105.0,121.0,102.0,13.3,1505.3,325.7,-0.7,1.9,2470.338,13.33,0.043,10.5
2020-07-17T06:43:03,42.805,6.029,0.007,0.04,-0.009,105.0,115.0,102.0,13.4,1505.3,326.1,-0.7,1.8,2470.313,13.33,0.04,9.9
2020-07-17T06:46:03,42.805,6.029,-0.003,0.045,0.009,104.0,119.0,101.0,13.3,1505.3,322.9,-0.7,1.8,2470.373,13.33,0.045,356.2
2020-07-17T06:49:03,42.805,6.029,-0.033,0.024,-0.024,105.0,119.0,102.0,13.4,1505.3,325.4,-0.7,1.8,2470.338,13.33,0.04,306.0
2020-07-17T06:52:03,42.805,6.029,0.006,0.043,0.007,105.0,121.0,102.0,13.3,1505.3,325.7,-0.7,1.8,2470.333,13.33,0.043,7.9
2020-07-17T06:55:03,42.805,6.029,0.022,0.034,-0.01,104.0,119.0,102.0,13.4,1505.3,326.7,-0.7,1.8,2470.35,13.33,0.04,32.9
2020-07-17T06:58:03,42.805,6.029,-0.013,0.028,-0.013,105.0,124.0,102.0,13.4,1505.3,322.8,-0.7,1.8,2470.386,13.33,0.03,335.1
2020-07-17T07:04:03,42.805,6.029,0.004,0.023,-0.002,104.0,121.0,102.0,13.3,1505.3,324.8,-0.7,1.8,2470.353,13.31,0.023,9.9
2020-07-17T07:07:03,42.805,6.029,0.01,0.023,-0.022,105.0,120.0,102.0,13.3,1505.3,328.4,-0.7,1.8,2470.347,13.32,0.025,23.5
2020-07-17T07:10:03,42.805,6.029,0.005,0.016,-0.033,106.0,121.0,102.0,13.4,1505.3,323.3,-0.7,1.9,2470.35,13.32,0.016,17.4
2020-07-17T07:13:03,42.805,6.029,0.002,0.039,-0.043,105.0,120.0,102.0,13.3,1505.3,323.9,-0.7,1.9,2470.339,13.33,0.039,2.9
2020-07-17T07:16:03,42.805,6.029,-0.003,0.025,-0.01,104.0,121.0,102.0,13.4,1505.3,327.3,-0.7,1.8,2470.328,13.33,0.025,353.2
2020-07-17T07:19:03,42.805,6.029,-0.007,0.031,-0.017,104.0,121.0,103.0,13.4,1505.3,327.9,-0.7,1.8,2470.37,13.33,0.031,347.3
2020-07-17T07:22:03,42.805,6.029,-0.003,0.043,-0.01,104.0,121.0,102.0,13.4,1505.3,328.4,-0.7,1.8,2470.368,13.33,0.043,356.0
2020-07-17T07:25:03,42.805,6.029,0.002,0.023,-0.037,105.0,120.0,101.0,13.4,1505.3,326.5,-0.7,1.8,2470.293,13.33,0.023,5.0
2020-07-17T07:28:03,42.805,6.029,0.005,0.039,0.005,105.0,119.0,103.0,13.4,1505.3,324.1,-0.8,1.8,2470.299,13.33,0.039,7.3
2020-07-17T07:31:03,42.805,6.029,-0.005,0.04,-0.067,105.0,120.0,102.0,13.4,1505.3,326.3,-0.7,1.8,2470.295,13.33,0.04,352.9
2020-07-17T07:37:03,42.805,6.029,-0.014,0.044,-0.011,105.0,119.0,102.0,13.4,1505.3,326.8,-0.8,1.8,2470.322,13.31,0.046,342.4
2020-07-17T07:40:03,42.805,6.029,0.01,0.031,0.009,104.0,119.0,102.0,13.4,1505.3,323.2,-0.7,1.8,2470.346,13.32,0.032,17.9
2020-07-17T07:43:03,42.805,6.029,-0.021,0.052,-0.054,104.0,121.0,101.0,13.4,1505.3,326.5,-0.7,1.8,2470.316,13.32,0.056,338.0
2020-07-17T07:46:03,42.805,6.029,-0.017,0.027,-0.007,104.0,121.0,101.0,13.3,1505.3,327.1,-0.7,1.8,2470.346,13.32,0.031,327.8
2020-07-17T07:49:03,42.805,6.029,0.0,0.041,0.001,105.0,121.0,102.0,13.4,1505.3,324.3,-0.7,1.8,2470.284,13.33,0.041,0.0
2020-07-17T07:52:03,42.805,6.029,-0.012,0.036,-0.007,104.0,121.0,103.0,13.4,1505.3,326.9,-0.7,1.8,2470.322,13.33,0.037,341.6
2020-07-17T07:55:03,42.805,6.029,-0.001,0.047,-0.03,104.0,116.0,102.0,13.3,1505.3,327.5,-0.7,1.8,2470.295,13.33,0.047,358.8
2020-07-17T07:58:03,42.805,6.029,0.016,0.032,-0.014,105.0,119.0,102.0,13.3,1505.3,324.6,-0.7,1.8,2470.271,13.33,0.035,26.6
2020-07-17T08:04:03,42.805,6.029,-0.019,0.038,-0.044,105.0,119.0,102.0,13.3,1505.3,325.4,-0.7,1.8,2470.314,13.31,0.042,333.4
2020-07-17T08:07:03,42.805,6.029,-0.017,0.017,-0.01,105.0,119.0,103.0,13.3,1505.3,325.7,-0.7,1.8,2470.301,13.32,0.024,315.0
2020-07-17T08:10:03,42.805,6.029,0.017,0.034,-0.018,104.0,119.0,102.0,13.4,1505.3,327.2,-0.7,1.8,2470.322,13.32,0.038,26.6
2020-07-17T08:13:03,42.805,6.029,0.014,0.051,0.001,106.0,119.0,102.0,13.4,1505.3,323.5,-0.7,1.8,2470.302,13.32,0.052,15.3
2020-07-17T08:16:03,42.805,6.029,0.011,0.027,0.003,105.0,119.0,103.0,13.4,1505.3,323.1,-0.7,1.8,2470.313,13.32,0.029,22.2
2020-07-17T08:19:03,42.805,6.029,-0.001,0.025,-0.009,105.0,117.0,103.0,13.4,1505.3,324.5,-0.7,1.8,2470.305,13.33,0.025,357.7
2020-07-17T08:22:03,42.805,6.029,-0.02,0.049,-0.016,104.0,118.0,102.0,13.3,1505.3,325.7,-0.7,1.8,2470.316,13.33,0.052,337.8
2020-07-17T08:25:03,42.805,6.029,-0.006,0.035,0.01,104.0,121.0,103.0,13.3,1505.3,326.5,-0.7,1.8,2470.308,13.33,0.035,350.3
2020-07-17T08:28:03,42.805,6.029,0.0,0.029,-0.01,105.0,122.0,103.0,13.4,1505.3,323.0,-0.7,1.8,2470.284,13.33,0.028,0.0
2020-07-17T08:31:03,42.805,6.029,0.0,0.039,-0.006,105.0,123.0,102.0,13.3,1505.3,327.9,-0.7,1.8,2470.318,13.33,0.039,0.0
2020-07-17T08:34:03,42.805,6.029,0.008,0.036,-0.011,105.0,118.0,102.0,13.4,1505.3,326.9,-0.7,1.8,2470.265,13.33,0.036,12.5
2020-07-17T08:37:03,42.805,6.029,-0.006,0.016,-0.004,106.0,120.0,102.0,13.4,1505.3,324.3,-0.7,1.8,2470.314,13.33,0.017,339.4
2020-07-17T08:40:03,42.805,6.029,0.006,0.046,-0.023,104.0,122.0,102.0,13.4,1505.3,327.0,-0.7,1.8,2470.284,13.33,0.046,7.4
2020-07-17T08:43:03,42.805,6.029,0.004,0.052,0.013,105.0,121.0,102.0,13.3,1505.3,326.5,-0.7,1.8,2470.26,13.33,0.052,4.4
2020-07-17T08:46:03,42.805,6.029,0.021,0.032,0.023,105.0,120.0,103.0,13.4,1505.3,324.7,-0.7,1.9,2470.302,13.33,0.038,33.3
2020-07-17T08:49:03,42.805,6.029,0.004,0.039,0.008,105.0,119.0,104.0,13.3,1505.3,325.4,-0.7,1.8,2470.259,13.33,0.039,5.9
2020-07-17T08:52:03,42.805,6.029,-0.004,0.021,-0.025,105.0,121.0,102.0,13.3,1505.3,326.1,-0.7,1.8,2470.252,13.33,0.021,349.2
2020-07-17T08:55:03,42.805,6.029,-0.023,0.037,-0.011,104.0,122.0,103.0,13.3,1505.3,324.6,-0.7,1.8,2470.283,13.33,0.043,328.1
2020-07-17T08:58:03,42.805,6.029,-0.024,0.048,0.008,104.0,118.0,103.0,13.4,1505.3,323.7,-0.7,1.9,2470.24,13.33,0.053,333.4
2020-07-17T09:04:03,42.805,6.029,-0.012,0.058,-0.003,105.0,117.0,102.0,13.4,1505.3,326.4,-0.7,1.8,2470.308,13.31,0.059,348.3
2020-07-17T09:07:03,42.805,6.029,-0.007,0.029,-0.011,106.0,119.0,102.0,13.3,1505.3,327.6,-0.7,1.8,2470.27,13.31,0.029,346.4
2020-07-17T09:10:03,42.805,6.029,0.0,0.046,0.015,105.0,118.0,102.0,13.4,1505.3,325.4,-0.7,1.8,2470.286,13.32,0.046,0.0
2020-07-17T09:13:03,42.805,6.029,-0.035,0.039,-0.046,104.0,124.0,103.0,13.4,1505.3,328.4,-0.7,1.9,2470.291,13.32,0.052,318.1
2020-07-17T09:16:03,42.805,6.029,-0.039,0.024,-0.048,105.0,122.0,103.0,13.4,1505.3,323.8,-0.7,1.8,2470.278,13.32,0.045,301.6
2020-07-17T09:19:03,42.805,6.029,-0.006,0.066,0.0,105.0,120.0,102.0,13.4,1505.3,324.4,-0.7,1.8,2470.262,13.33,0.066,354.8
2020-07-17T09:22:03,42.805,6.029,-0.014,0.039,-0.004,107.0,122.0,102.0,13.4,1505.3,328.0,-0.7,1.8,2470.284,13.33,0.041,340.3
2020-07-17T09:25:03,42.805,6.029,-0.023,0.04,-0.037,105.0,122.0,102.0,13.3,1505.3,325.7,-0.7,1.8,2470.254,13.33,0.046,330.1
2020-07-17T09:28:03,42.805,6.029,-0.007,0.027,-0.02,106.0,123.0,103.0,13.4,1505.3,323.9,-0.7,1.8,2470.243,13.33,0.027,345.5
2020-07-17T09:31:03,42.805,6.029,0.011,0.038,-0.009,105.0,124.0,102.0,13.3,1505.3,324.5,-0.7,1.8,2470.293,13.33,0.039,16.1
2020-07-17T09:34:03,42.805,6.029,0.003,0.036,-0.004,104.0,122.0,103.0,13.3,1505.3,324.3,-0.7,1.8,2470.275,13.33,0.036,4.8
2020-07-17T09:37:03,42.805,6.029,0.004,0.033,-0.019,105.0,123.0,102.0,13.3,1505.3,325.2,-0.7,1.9,2470.231,13.33,0.033,6.9
2020-07-17T09:40:03,42.805,6.029,0.021,0.022,0.006,105.0,123.0,101.0,13.4,1505.3,324.2,-0.7,1.8,2470.239,13.33,0.03,43.7
2020-07-17T09:43:03,42.805,6.029,-0.037,0.031,-0.03,106.0,123.0,102.0,13.4,1505.3,326.8,-0.7,1.8,2470.257,13.33,0.048,310.0
2020-07-17T09:46:03,42.805,6.029,0.01,0.028,-0.02,105.0,122.0,104.0,13.4,1505.3,323.6,-0.7,1.8,2470.26,13.33,0.029,19.6
2020-07-17T09:49:03,42.805,6.029,0.009,0.046,0.016,106.0,123.0,103.0,13.4,1505.3,326.2,-0.7,1.8,2470.232,13.33,0.046,11.1
2020-07-17T09:52:03,42.805,6.029,0.0,0.031,-0.02,105.0,123.0,103.0,13.3,1505.3,325.0,-0.7,1.8,2470.239,13.33,0.03,0.0
2020-07-17T09:55:03,42.805,6.029,-0.034,0.03,-0.006,106.0,122.0,103.0,13.4,1505.3,324.7,-0.7,1.8,2470.239,13.33,0.045,311.4
2020-07-17T09:58:03,42.805,6.029,-0.034,0.045,-0.009,106.0,122.0,103.0,13.3,1505.3,323.3,-0.7,1.8,2470.203,13.33,0.056,322.9
2020-07-17T10:04:03,42.805,6.029,-0.015,0.028,0.007,105.0,119.0,102.0,13.4,1505.3,327.2,-0.7,1.8,2470.264,13.31,0.031,331.8
2020-07-17T10:07:03,42.805,6.029,-0.009,0.022,-0.026,106.0,122.0,102.0,13.4,1505.3,327.0,-0.7,1.8,2470.262,13.32,0.023,337.8
2020-07-17T10:10:03,42.805,6.029,-0.014,0.028,-0.019,105.0,122.0,104.0,13.3,1505.3,327.6,-0.7,1.8,2470.248,13.32,0.031,333.4